Location: Fort Hays State University
(38.8712°N, 99.3432°W)
Time: 06:10:47
(UTC-05:00)

Cosmos 2279 Rocket - Visible Passes

Search period start: 26 July 2014 00:00
Search period end: 05 August 2014 00:00
Orbit: 964 x 981 km, 82.9° (Epoch: 25 July)

Date Brightness Start Highest point End Pass type
(mag) Time Alt. Az. Time Alt. Az. Time Alt. Az.
26 Jul 5.2 04:10:45 10° N 04:16:33 40° ENE 04:22:19 10° SE visible
26 Jul 4.9 05:56:29 10° NNW 06:01:36 28° W 06:06:42 10° SW visible
27 Jul 4.2 04:34:53 10° N 04:41:05 73° E 04:47:16 10° SSE visible
28 Jul 6.3 03:15:32 10° NNE 03:19:40 18° ENE 03:23:47 10° ESE visible
28 Jul 4.0 04:59:21 10° NNW 05:05:28 63° W 05:11:34 10° S visible
29 Jul 5.4 03:38:57 10° NNE 03:44:27 33° ENE 03:49:56 10° SE visible
29 Jul 4.6 05:24:12 10° NNW 05:29:42 35° W 05:35:02 11° SSW visible
30 Jul 4.4 04:02:56 10° N 04:09:03 59° E 04:13:54 17° SSE visible
30 Jul 5.4 05:49:38 10° NW 05:53:46 19° W 05:57:54 10° SW visible
31 Jul 6.4 02:44:12 10° NE 02:47:29 15° ENE 02:50:45 10° E visible
31 Jul 3.9 04:27:17 10° N 04:33:30 79° W 04:37:23 24° S visible
01 Aug 5.7 03:07:12 10° NNE 03:12:20 26° ENE 03:16:24 14° ESE visible
01 Aug 4.4 04:51:59 10° NNW 04:57:46 43° W 05:00:56 25° SW visible
02 Aug 4.7 03:31:02 10° N 03:37:00 47° ENE 03:40:00 28° SE visible
02 Aug 5.1 05:17:09 10° NW 05:21:54 24° W 05:24:33 18° WSW visible
03 Aug 6.5 02:13:20 10° NE 02:15:16 11° ENE 02:17:11 10° E visible
03 Aug 3.9 03:55:16 10° N 04:01:30 85° E 04:03:40 44° S visible
03 Aug 5.7 05:43:31 10° WNW 05:45:52 12° W 05:48:13 10° WSW visible
04 Aug 5.9 02:35:34 10° NNE 02:40:12 22° ENE 02:42:50 17° ESE visible
04 Aug 4.1 04:19:49 10° NNW 04:25:50 54° W 04:27:23 43° SW visible
